{"data":{"norad_id":57971,"epoch":"2026-09-20T20:20:20.961312Z","epoch_age_seconds":107565,"freshness":"FRESH","line1":"1 57971U 23151H   26263.84746483  .00002191  00000+0  89155-4 0  9998","line2":"2 57971  43.0038 313.8112 0001014 262.3368  97.7369 15.27570761165615","mean_motion":15.27570761,"eccentricity":0.0001014,"inclination_deg":43.0038,"raan_deg":313.8112,"arg_perigee_deg":262.3368,"mean_anomaly_deg":97.7369,"bstar":8.9155e-5,"rev_number":16561,"period_min":94.267318854501,"perigee_km":482.38103399343,"apogee_km":483.77248814417,"semimajor_km":6861.2137610688,"source":"CELESTRAK","updated_at":"2026-09-21T09:00:33.749776Z"}}